Wind_Speed
7 8 8 8 8 8 8 9 9 9 9 9 8 8 9 9 9 9 9 8 8 8 8 8 8 8 8 8 8 7 7 6 5 4 4 3 2 2 2 1 1 2 2 2
8 8 8 8 8 8 7 8 9 9 8 8 8 8 8 9 9 9 9 9 9 9 8 7 8 8 8 8 8 8 7 6 5 5 4 4 3 2 2 1 1 2 2 2
8 8 9 8 8 7 8 9 9 8 8 8 9 9 9 10 9 9 10 10 9 9 8 8 8 8 9 9 9 8 8 7 6 5 4 4 3 2 2 1 1 1 2 2
9 9 9 8 8 8 8 9 9 8 7 8 8 8 9 9 9 9 10 10 10 9 8 8 8 9 8 9 8 8 8 7 6 6 4 4 3 2 2 1 0 1 2 2
9 9 9 9 9 9 9 9 8 8 8 8 8 8 8 9 9 9 10 10 10 10 9 8 9 9 8 9 8 8 8 7 6 6 5 4 3 2 2 2 1 0 1 2
10 10 10 10 10 10 9 9 8 8 8 7 7 7 7 8 9 10 10 10 10 10 9 9 9 9 9 9 9 9 9 7 6 6 5 5 4 4 4 3 2 1 0 2
11 11 10 10 10 9 9 8 8 8 8 8 7 7 7 7 7 8 9 9 10 10 10 9 9 9 10 10 10 9 9 8 8 8 6 6 5 5 5 4 3 3 2 1
12 12 11 10 10 9 9 9 9 9 9 8 8 7 7 7 7 7 8 8 8 9 9 9 9 9 10 10 10 10 9 8 8 8 8 6 6 6 6 5 4 4 3 2
12 12 11 10 10 9 9 9 9 9 9 9 8 7 8 8 7 7 7 7 7 8 8 9 9 9 10 10 10 10 10 9 8 8 8 7 7 6 6 5 5 4 4 3
12 12 11 11 10 10 10 9 9 9 9 9 9 8 8 7 7 7 7 7 7 7 8 8 8 9 9 10 10 10 9 9 9 9 9 8 7 6 6 6 6 5 5 5
12 12 12 11 11 11 10 10 9 9 9 9 9 8 7 7 7 6 7 6 7 7 8 8 8 8 8 9 9 10 9 9 8 8 8 8 7 7 6 7 7 6 6 6
12 12 12 12 12 12 12 11 10 10 10 10 10 9 8 7 7 7 6 6 6 7 8 8 8 8 8 8 9 9 9 9 9 8 8 8 8 8 7 7 7 7 7 7
13 12 12 13 13 13 13 12 12 12 11 11 11 10 9 8 8 8 7 7 7 7 7 8 8 8 9 9 9 9 9 8 9 9 9 9 8 8 8 8 8 8 8 7
14 13 13 14 14 14 14 13 13 12 12 12 11 10 9 9 9 9 8 8 8 8 9 9 8 8 9 9 8 9 9 9 9 10 10 10 10 9 9 9 9 9 9 9
15 15 15 15 15 15 14 14 14 13 13 12 11 10 9 10 10 10 9 9 9 9 9 8 8 8 9 9 9 9 9 9 10 10 10 10 10 10 10 11 10 11 11 11
16 16 16 16 16 16 15 15 15 14 14 13 13 11 10 10 11 10 10 10 9 9 9 8 8 9 10 10 10 10 10 10 10 10 10 10 10 10 11 11 12 13 13 12
19 18 18 18 18 17 17 15 15 15 15 15 14 12 11 12 12 11 11 10 10 10 9 9 9 9 10 11 11 11 11 11 11 11 11 11 11 11 11 11 11 12 12 13
20 20 19 19 18 19 17 16 16 16 16 16 15 14 13 13 13 12 12 12 11 11 10 10 10 10 10 11 12 11 12 12 11 11 11 12 13 13 13 13 13 13 13 14
22 21 20 20 19 19 18 18 17 17 16 16 16 15 15 14 14 13 12 13 13 12 11 11 11 11 12 12 12 12 12 12 12 13 13 13 13 14 14 14 14 15 15 15
23 22 21 21 20 19 19 19 18 17 17 17 16 16 15 15 14 13 13 13 13 13 13 12 12 12 12 13 13 13 13 13 13 13 14 14 14 15 15 15 15 15 16 16
24 23 22 21 20 20 19 19 19 18 18 17 17 16 16 16 15 15 14 14 13 13 13 13 13 13 13 13 13 13 14 14 14 14 14 14 15 15 16 16 16 17 17 17
25 24 23 22 21 20 20 20 19 19 19 19 18 17 17 16 17 16 15 14 14 13 14 14 13 13 14 14 14 14 14 14 14 15 15 15 16 16 17 17 18 18 18 18
26 25 24 24 22 22 21 21 20 20 20 20 19 18 18 18 18 18 16 15 15 14 14 14 14 14 14 14 14 15 15 15 15 15 16 16 16 17 17 18 18 18 19 20
27 27 26 25 24 23 22 21 21 21 21 21 21 20 20 20 20 19 18 17 16 16 15 15 15 15 15 15 15 15 16 16 16 16 16 16 17 17 18 18 18 19 20 20
27 27 27 27 25 24 23 23 23 23 22 22 22 21 21 21 20 20 19 18 18 17 17 16 16 16 16 16 16 16 16 17 17 17 18 18 18 18 18 18 18 19 19 20
27 27 28 28 26 25 25 24 24 23 23 23 23 23 23 22 21 21 21 20 19 18 18 18 18 17 17 17 17 16 16 17 17 17 17 18 18 18 18 18 18 18 19 19
Wind_Direction
272 273 276 278 278 275 273 272 272 275 274 267 262 264 271 265 258 249 247 245 245 251 255 255 247 236 235 237 239 234 227 222 220 216 216 222 240 269 278 296 358 0 5 18
274 275 278 281 278 278 279 276 275 276 273 261 258 261 267 264 259 252 246 242 242 251 255 255 247 238 235 233 232 227 225 221 214 214 223 232 240 255 271 284 25 17 5 12
274 276 279 278 275 277 279 278 275 276 273 263 262 263 263 257 258 251 247 241 240 246 252 255 246 234 233 231 227 223 221 221 217 214 224 239 248 245 245 261 85 41 12 14
270 273 276 275 273 276 276 274 269 269 274 271 266 263 261 259 256 249 246 241 240 245 250 249 240 234 231 224 219 222 223 221 220 212 215 232 243 242 224 206 154 67 32 27
271 272 274 274 273 273 274 269 265 267 273 277 272 263 258 260 254 251 247 246 245 248 248 244 235 230 227 223 222 222 221 219 218 216 216 227 234 230 214 210 214 106 57 40
271 271 271 270 269 268 270 265 263 269 275 277 271 268 262 261 257 254 248 248 247 245 241 239 238 232 229 229 227 228 223 220 221 221 218 228 231 224 216 214 211 208 92 43
270 270 269 269 269 267 265 263 265 268 274 275 268 267 262 262 256 253 246 248 246 242 241 240 236 231 230 231 229 227 223 219 223 223 219 223 224 219 217 218 222 227 230 310
269 269 269 267 267 268 264 259 261 262 269 272 266 267 263 266 260 255 250 252 243 240 242 240 236 235 232 229 225 224 223 223 228 229 221 223 222 225 223 224 228 229 235 257
266 267 267 266 265 263 261 257 255 255 260 263 263 266 263 265 262 251 250 250 241 242 242 237 236 238 235 227 224 222 224 223 228 229 223 223 227 229 228 232 232 235 238 246
263 264 263 263 262 260 258 256 252 253 256 261 264 263 262 265 257 250 250 248 241 241 238 234 236 236 233 227 226 224 224 224 230 233 225 222 224 225 230 233 237 243 249 253
261 262 263 259 259 260 257 254 251 252 253 252 256 260 256 255 253 253 247 245 241 239 236 233 235 230 227 227 228 227 226 225 226 227 219 221 226 230 236 238 240 245 252 255
258 259 259 258 258 256 253 252 251 252 252 249 253 259 253 251 253 253 248 249 246 242 237 235 233 229 228 229 229 224 224 224 224 223 224 229 234 236 238 241 244 249 255 259
254 255 257 257 255 253 250 249 250 248 249 252 255 258 251 254 252 254 253 250 250 244 239 237 234 232 234 235 231 226 225 227 227 226 229 235 240 242 244 247 250 255 259 267
251 251 251 252 253 251 247 246 247 247 250 253 254 254 250 251 251 249 252 251 250 248 244 243 237 236 233 233 232 228 229 231 230 231 234 240 245 247 247 254 261 262 264 267
248 250 250 250 250 249 247 246 246 248 250 250 250 248 247 248 248 247 248 249 247 248 248 242 237 236 232 233 236 234 231 232 233 234 236 243 245 249 253 258 262 265 269 268
245 247 250 251 250 249 248 246 247 247 247 247 250 248 243 248 248 248 246 247 249 249 248 243 241 241 236 235 238 237 234 235 237 238 240 246 250 254 259 262 265 267 270 270
244 246 249 251 250 250 248 247 247 248 247 247 249 248 243 245 248 249 247 247 246 244 245 243 241 240 238 239 239 238 236 239 242 245 247 250 254 258 262 266 268 272 273 272
244 245 248 251 251 248 248 248 247 246 245 246 249 247 241 242 246 248 248 247 245 242 242 243 243 241 241 242 239 239 241 243 246 248 251 255 257 260 263 267 270 274 275 275
244 244 246 249 250 249 246 246 247 246 244 244 245 244 241 243 247 248 250 247 243 237 237 244 247 244 245 243 240 241 245 248 250 253 255 258 259 261 263 266 270 273 275 275
242 243 245 247 247 247 246 245 246 245 245 242 242 242 243 244 247 249 250 246 240 238 238 244 246 245 246 245 244 244 248 250 254 257 258 261 262 262 265 268 270 273 275 276
241 243 245 245 246 246 246 245 244 243 242 241 243 244 244 246 246 247 246 244 242 241 241 244 246 247 249 250 248 248 250 252 256 258 259 261 263 265 268 270 272 274 275 276
242 244 245 245 246 246 245 244 242 242 242 242 244 245 245 245 244 244 240 241 244 244 243 245 248 250 252 252 252 252 254 255 256 259 261 263 264 267 269 271 274 275 275 276
241 243 244 244 245 246 245 245 244 245 244 243 242 243 244 243 242 241 240 243 245 245 246 248 251 255 255 254 254 255 257 258 259 262 265 266 267 269 270 272 275 276 277 278
241 241 242 242 242 244 244 245 245 245 244 243 241 242 242 242 242 239 240 243 244 245 248 252 256 258 258 258 258 257 259 261 263 265 268 269 268 269 271 272 274 277 279 279
240 241 242 242 242 243 244 245 245 245 244 242 241 239 240 239 237 237 241 243 245 247 248 251 255 257 258 259 259 259 260 261 264 266 267 267 269 271 272 274 277 278 278 277
239 240 241 241 242 245 245 244 243 242 242 241 239 240 240 238 237 238 241 244 245 246 247 250 252 254 257 260 261 259 261 264 265 266 267 268 270 271 273 274 276 279 281 281
Height
5877 5878 5877 5877 5877 5877 5877 5877 5877 5877 5876 5876 5876 5877 5877 5876 5876 5876 5877 5878 5878 5878 5879 5879 5879 5880 5881 5881 5882 5882 5883 5883 5883 5884 5884 5884 5884 5883 5883 5882 5881 5880 5879 5879
5875 5875 5875 5875 5875 5875 5875 5875 5875 5874 5874 5874 5874 5875 5875 5874 5874 5875 5875 5876 5876 5877 5877 5877 5878 5878 5879 5880 5880 5881 5882 5882 5883 5883 5883 5883 5883 5883 5882 5882 5881 5880 5880 5879
5873 5874 5872 5872 5872 5872 5872 5873 5872 5872 5872 5872 5873 5873 5873 5873 5872 5873 5873 5874 5874 5875 5875 5876 5876 5876 5877 5878 5879 5880 5880 5881 5882 5882 5882 5883 5883 5882 5882 5882 5881 5881 5880 5879
5870 5870 5870 5870 5870 5870 5870 5870 5870 5870 5870 5870 5871 5871 5871 5870 5871 5871 5871 5872 5873 5873 5874 5874 5874 5875 5876 5877 5878 5878 5879 5880 5881 5881 5882 5882 5882 5882 5882 5882 5881 5881 5880 5879
5868 5868 5868 5868 5868 5868 5868 5868 5868 5868 5868 5868 5869 5869 5870 5869 5869 5869 5869 5870 5871 5871 5872 5872 5873 5874 5874 5875 5876 5877 5878 5879 5880 5880 5881 5881 5882 5882 5882 5882 5881 5881 5880 5880
5865 5865 5865 5866 5865 5866 5866 5866 5866 5866 5866 5867 5867 5867 5868 5867 5867 5867 5867 5868 5868 5869 5870 5870 5871 5872 5873 5874 5875 5876 5877 5877 5878 5879 5880 5880 5881 5881 5881 5881 5881 5881 5880 5880
5863 5863 5863 5863 5863 5863 5864 5865 5865 5865 5865 5865 5865 5865 5866 5865 5865 5865 5865 5866 5866 5867 5867 5868 5869 5870 5871 5872 5873 5874 5875 5876 5877 5878 5879 5879 5880 5880 5881 5881 5881 5881 5880 5880
5860 5860 5860 5860 5860 5860 5861 5862 5863 5864 5863 5863 5863 5863 5864 5863 5863 5863 5863 5863 5864 5864 5865 5866 5867 5868 5869 5870 5871 5873 5874 5875 5876 5876 5877 5878 5878 5879 5880 5880 5880 5880 5880 5880
5857 5857 5857 5857 5857 5858 5858 5859 5860 5860 5860 5861 5861 5861 5861 5861 5860 5861 5861 5861 5862 5862 5863 5864 5865 5866 5867 5868 5870 5871 5872 5873 5874 5875 5876 5877 5877 5878 5878 5879 5879 5879 5879 5879
5853 5854 5854 5854 5855 5855 5856 5856 5857 5858 5858 5858 5859 5859 5859 5858 5858 5859 5859 5859 5860 5860 5861 5862 5863 5864 5865 5866 5868 5869 5870 5871 5872 5873 5874 5875 5876 5877 5877 5878 5878 5878 5878 5878
5849 5851 5851 5852 5852 5853 5854 5854 5854 5855 5856 5857 5857 5859 5857 5857 5857 5857 5857 5857 5858 5859 5859 5860 5861 5862 5863 5865 5866 5867 5869 5870 5871 5872 5873 5874 5875 5875 5876 5877 5877 5877 5877 5877
5846 5847 5847 5848 5849 5849 5850 5851 5852 5853 5853 5854 5854 5858 5855 5855 5855 5855 5855 5856 5856 5857 5857 5858 5859 5860 5862 5863 5864 5865 5867 5868 5869 5870 5871 5872 5873 5874 5874 5875 5875 5875 5875 5876
5842 5844 5844 5845 5847 5847 5847 5847 5848 5849 5850 5851 5852 5855 5853 5853 5853 5853 5854 5854 5854 5855 5856 5857 5858 5859 5860 5861 5862 5863 5865 5866 5867 5868 5870 5871 5872 5872 5873 5873 5873 5874 5874 5874
5838 5839 5841 5842 5842 5842 5843 5844 5845 5846 5847 5848 5849 5850 5850 5850 5850 5851 5851 5852 5852 5853 5854 5855 5856 5857 5858 5859 5860 5862 5863 5864 5865 5866 5868 5869 5870 5870 5871 5871 5871 5871 5871 5871
5833 5835 5836 5836 5837 5838 5839 5840 5841 5842 5844 5845 5846 5847 5847 5847 5848 5848 5849 5850 5850 5851 5852 5853 5854 5855 5856 5857 5858 5860 5861 5862 5863 5864 5865 5866 5867 5868 5868 5868 5869 5869 5869 5869
5829 5830 5831 5832 5833 5834 5835 5836 5837 5839 5840 5841 5842 5844 5844 5845 5845 5846 5846 5848 5848 5849 5850 5851 5852 5853 5854 5855 5856 5857 5859 5860 5861 5862 5863 5863 5864 5865 5865 5866 5866 5866 5865 5865
5823 5825 5827 5828 5828 5829 5831 5833 5834 5835 5836 5837 5839 5841 5841 5842 5843 5843 5844 5845 5846 5847 5848 5848 5849 5850 5851 5852 5854 5855 5856 5857 5858 5859 5860 5861 5861 5862 5862 5862 5862 5862 5862 5862
5818 5820 5821 5822 5824 5825 5829 5829 5829 5830 5832 5833 5835 5836 5838 5839 5839 5840 5841 5842 5843 5844 5845 5846 5847 5848 5849 5850 5851 5852 5853 5854 5855 5856 5857 5857 5858 5859 5859 5859 5859 5859 5858 5858
5813 5814 5816 5817 5819 5820 5823 5824 5825 5826 5828 5829 5831 5832 5834 5835 5836 5837 5838 5839 5840 5841 5842 5843 5844 5845 5846 5847 5848 5849 5850 5851 5852 5853 5853 5854 5854 5855 5855 5855 5855 5854 5854 5854
5806 5808 5811 5812 5813 5815 5818 5819 5819 5822 5823 5825 5826 5828 5829 5831 5833 5834 5834 5835 5836 5838 5839 5840 5841 5842 5843 5844 5845 5846 5847 5848 5848 5849 5849 5850 5850 5850 5850 5850 5850 5850 5849 5849
5800 5802 5804 5806 5808 5810 5813 5813 5815 5818 5820 5820 5822 5823 5825 5827 5829 5830 5831 5832 5833 5834 5835 5837 5838 5839 5840 5841 5841 5842 5843 5844 5844 5845 5845 5845 5846 5846 5846 5846 5845 5845 5845 5844
5794 5796 5799 5801 5803 5807 5807 5808 5810 5812 5813 5815 5817 5819 5820 5822 5824 5825 5827 5828 5829 5831 5832 5833 5834 5835 5836 5837 5838 5839 5839 5840 5840 5840 5841 5841 5841 5841 5841 5841 5840 5840 5839 5839
5787 5791 5793 5796 5799 5800 5801 5803 5804 5806 5808 5810 5812 5814 5815 5817 5819 5821 5822 5824 5825 5827 5828 5829 5830 5831 5832 5833 5834 5834 5835 5835 5836 5836 5836 5836 5836 5836 5835 5835 5835 5834 5834 5833
5780 5783 5786 5788 5791 5793 5795 5796 5798 5800 5802 5804 5806 5808 5810 5812 5814 5816 5818 5819 5821 5822 5824 5825 5826 5827 5827 5828 5829 5830 5830 5830 5831 5831 5831 5831 5831 5830 5830 5830 5829 5829 5828 5827
5773 5775 5778 5781 5784 5786 5788 5790 5792 5794 5796 5798 5800 5802 5804 5806 5809 5811 5813 5814 5816 5817 5819 5820 5821 5822 5823 5823 5824 5825 5825 5825 5825 5825 5825 5825 5825 5825 5824 5824 5823 5823 5822 5821
5766 5769 5771 5775 5778 5780 5782 5784 5786 5788 5790 5792 5794 5796 5798 5801 5803 5805 5807 5809 5810 5812 5813 5815 5816 5817 5818 5818 5819 5819 5820 5820 5820 5820 5820 5820 5820 5819 5819 5818 5818 5817 5816 5815